S-NET A

Last updated on Wed Aug 19 2026 00:03:17 GMT+0000 (Coordinated Universal Time)

1 43188U 18014J 26230.53266208 .00003983 00000+0 20380-3 0 9991 2 43188 97.5297 135.1423 0009386 147.7596 212.4213 15.17174845468218
UTC large
Height (km)
Speed (km/s)
/
Latitude / Longitude
Inclination (degrees)
Orbital Period (minutes)
Azimuth
Elevation
Range (km)
Doppler Factor

Next 0 passes for location: London (51.5072 / 0.1276)

No passes found over London.
S-NET A